Overview Statistics Trail Chart Weather Telemetry Raw packets
 

This is the latest recevied weather packets stored in our database for station/object KO6HRZ. If no packets are shown the sender has not sent any weather packets the latest 10 day(s).

<< 43 44 45 46 47 48 49 >>
Time Temp. Humidity Pressure Rain* Wind** Luminosity Snow
1788008171 15.56° C 78% 1011.7 hPa 0 mm - 0 W/m² -
1788007569 15.56° C 77% 1011.9 hPa 0 mm - 0 W/m² -
1788006969 15.56° C 77% 1011.7 hPa 0 mm - 0 W/m² -
1788006363 16.11° C 77% 1011.8 hPa 0 mm - 0 W/m² -
1788005762 16.11° C 77% 1011.9 hPa 0 mm - 0 W/m² -
1788005161 15.56° C 77% 1011.7 hPa 0 mm - 0 W/m² -
1788004561 15.56° C 76% 1011.8 hPa 0 mm - 0 W/m² -
1788003961 16.11° C 76% 1011.7 hPa 0 mm - 0 W/m² -
1788003360 16.11° C 75% 1011.7 hPa 0 mm - 0 W/m² -
1788002755 16.11° C 75% 1011.7 hPa 0 mm - 0 W/m² -
1788002152 16.67° C 74% 1011.8 hPa 0 mm - 0 W/m² -
1788001548 16.11° C 74% 1011.6 hPa 0 mm - 0 W/m² -
1788000943 16.11° C 74% 1011.5 hPa 0 mm - 0 W/m² -
1788000338 16.11° C 74% 1011.5 hPa 0 mm - 0 W/m² -
1787999735 16.11° C 73% 1011.6 hPa 0 mm - 0 W/m² -
1787999131 16.67° C 73% 1011.2 hPa 0 mm - 0 W/m² -
1787998531 16.67° C 73% 1011.4 hPa 0 mm - 0 W/m² -
1787997926 16.67° C 72% 1011.3 hPa 0 mm - 0 W/m² -
1787997324 16.67° C 72% 1011.3 hPa 0 mm - 0 W/m² -
1787996719 17.22° C 70% 1011.4 hPa 0 mm - 0 W/m² -
1787996115 17.78° C 69% 1011.4 hPa 0 mm - 0 W/m² -
1787995511 17.78° C 68% 1011.4 hPa 0 mm - 0 W/m² -
1787994908 17.78° C 68% 1011.3 hPa 0 mm - 0 W/m² -
1787994307 17.78° C 67% 1011.6 hPa 0 mm - 0 W/m² -
1787993706 17.78° C 67% 1011.5 hPa 0 mm - 0 W/m² -

* Rain latest hour (hover to see other rain measurements)
** Current wind speed in m/s (hover to see current wind gust speed)